Погода в Беляе

Россия / Томская область     57°03′04″N   86°16′07″E
темп.,
°C
ветер,
м/с
пор.,
м/с
влажн.,
%
обл.,
%
осадки,
мм/ч
давл.,
гПа
погр.,
м
13 мая, чт
чт1301:00+12св224992 0.0 101313
04:00+10юв22555 0.0 101310
07:00+12ю235560 0.0 101396
10:00+17зюз234054 0.0 1012544
13:00+21зюз3430100 0.0 10112684
16:00+19ююв5537100 0.1 10111291
19:00+17юз5651100 0.1 1011356
22:00+13ссз5106660 0.1 1013336
14 мая, пт
пт1401:00+10сз2385100 0.1 101453
04:00+10сз4877100 0.0 1014340
07:00+8сз611745 0.0 1016479
10:00+8ссз796995 0.0 10181248
13:00+12ссз79365 0.0 10181569
16:00+13сз7929100 0.0 10191806
19:00+12сз5835100 0.0 10201607
22:00+8з4945100 0.0 1021191
15 мая, сб
сб1501:00+9юз3549100 0.0 1020155
04:00+10юз71544100 0.0 1017465
07:00+11зюз7164881 0.2 1017609
10:00+15зюз8115165 0.3 1016760
13:00+18зюз81051100 0.3 1015966
16:00+20зюз61150100 0.0 10131355
19:00+16юз4989100 3.5 1012326
22:00+14з3890100 3.8 1013225
16 мая, вс
вс1601:00+13з2496100 4.1 1013100
04:00+13ссв2397100 0.1 1013148
07:00+11в4694100 0.6 1012239
10:00+12всв3494100 0.3 1013232
13:00+11всв2396100 3.2 1013202
16:00+11св3389100 0.6 1014385
19:00+10св2386100 0.6 1013300
22:00+9юв239167 0.0 1013107
17 мая, пн
пн1701:00+9ю2494100 0.0 1012104
04:00+11ююз5149594 0.2 1007372
07:00+15зюз9188189 0.2 1005645
10:00+19з8126683 0.1 1004801
13:00+21зсз7126390 0.3 10031486
16:00+16ссз91283100 1.3 1006995
19:00+9с6118598 1.4 1010708
22:00+6с6881100 0.0 1013764